Regional Weather Roundup
Issued by NWS Charleston, SC

Current Version | Previous Version | Graphics & Text | Print | Product List | Glossary On
Versions: 1 2 3 4 5 6 7 8 9 10 11 12 13 14 15 16 17 18 19 20 21 22 23 24 25 26 27 28 29 30 31 32 33 34 35 36 37 38 39 40 41 42 43 44 45 46 47 48 49 50
000
ASUS42 KCHS 211410
RWRCHS

REGIONAL WEATHER ROUNDUP
NATIONAL WEATHER SERVICE CHARLESTON SC
1000 AM EDT THU AUG 21 2014

NOTE: "FAIR" INDICATES FEW OR NO CLOUDS BELOW 12,000 FEET WITH NO
SIGNIFICANT WEATHER AND/OR OBSTRUCTIONS TO VISIBILITY.

NOT ALL STATIONS ARE QUALITY CONTROLLED BY THE NATIONAL
WEATHER SERVICE. USE DATA WITH CAUTION...ESPECIALLY
DEWPOINT OBSERVATIONS.

SCZ027-030-031-034>040-042>050-211500-
...SOUTH CAROLINA...

CITY           SKY/WX    TMP DP  RH WIND       PRES   REMARKS
N CHARLESTON   MOSUNNY   85  72  65 NW3       30.08R HX  91
WATERFRONT PRK   N/A     82 N/A N/A W6          N/A
FORT JOHNSON   NOT AVBL
MOUNT PLEASANT FAIR      82  73  74 NW6       30.08R
JOHNS ISLAND   SUNNY     84  75  74 CALM      30.08S HX  92
PINOPOLIS        N/A     82  73  74 NW5       30.01R
MONCKS CORNER  NOT AVBL
SUMMERVILLE    FAIR      82  73  74 NW5       30.09S
BEAUFORT MCAS  PTSUNNY   83  72  69 N6        30.09R
BEAUFORT ARPT  FAIR      82  73  74 CALM      30.08S
HILTON HEAD IS SUNNY     82  73  74 W6        30.10S
GEORGETOWN     NOT AVBL
WALTERBORO     SUNNY     84  68  58 NW5       30.10R
ORANGEBURG     SUNNY     85  68  56 N7        30.10R
BARNWELL       FAIR      82  70  65 N3        30.11R
AIKEN          FAIR      84  72  65 W6        30.14S
MANNING        FAIR      86  75  70 N3        30.08S HX  95
KINGSTREE      NOT AVBL
COLUMBIA       MOSUNNY   86  64  47 N6        30.09R
SUMTER         SUNNY     84  72  66 N6        30.07R
FLORENCE       SUNNY     86  70  58 N8        30.07R HX  90
MYRTLE BEACH   SUNNY     84  75  74 W6        30.06R HX  92
N MYRTLE BEACH SUNNY     85  76  74 W3        30.06R HX  94

$$

GAZ063-065-086>088-099>101-113>116-118-119-134-136>141-150-211500-
...GEORGIA...

CITY           SKY/WX    TMP DP  RH WIND       PRES   REMARKS
SAVANNAH ARPT  PTSUNNY   81  71  71 W5        30.10S
HUNTER AAF     MOSUNNY   79  71  77 W6        30.08F
FORT STEWART   MOSUNNY   81  69  67 W2        30.10S
STATESBORO     NOT AVBL
SYLVANIA       SUNNY     82  74  77 NW3       30.11S
CLAXTON        FAIR      81  75  83 CALM      30.12R
THOMSON        SUNNY     82  74  78 NW3       30.16R
AUGUSTA-BUSH   SUNNY     82  69  64 NW3       30.10R
AUGUSTA-DANIEL SUNNY     85  68  56 N5        30.12R
SWAINSBORO     FAIR      86  72  62 NW7       30.13R HX  92
VIDALIA          N/A     81  72  74 CALM      30.13R
ALMA           SUNNY     83  71  67 NW6       30.13R
WAYCROSS       SUNNY     87  75  66 W5        30.12F HX  96
JESUP            N/A     86  73  66 W3        30.12S HX  93
BRUNSWICK      MOSUNNY   86  70  58 W3        30.12F HX  90
SAINT SIMONS   MOSUNNY   82  69  64 W5        30.12R

$$

SCZ027-028-034-036>038-045-046-048>050-GAZ119-141-211500-
...LAKE AND SUPPLEMENTAL COASTAL OBSERVATIONS...

STATION/POSITION TIME  TEMP    WIND        PRES    WAVE   SWELL
                       AIR SEA DIR/SP/G            HT/PER HT/PER/DIR
                 (UTC) (F)     (DEG/KT/KT) (MB)    (FT/S) (FT/S/D)
UPR LAKE MARION  NOT AVBL
WINYAH BAY       1300   81     230/  3     1017.0S
LAKE MURRAY      1300   82     340/  1/  3 1018.3S
ACE BASIN NERRS  1300   78     310/  2     1018.0S
FORT PULASKI     1400   79     280/  8/  9 1019.3S
SAPELO ISLAND    1300   81     300/  8     1020.0S

$$

ANZ835-935-AMZ111-154-330-350-352-354-374-450-454-472-211500-
...C-MAN AND BUOY OBSERVATIONS...

STATION/POSITION TIME  TEMP    WIND        PRES    WAVE   SWELL
                       AIR SEA DIR/SP/G            HT/PER HT/PER/DIR
                 (UTC) (F)     (DEG/KT/KT) (MB)    (FT/S) (FT/S/D)
FOLLY BEACH CMAN 1300   79     280/  5/  7 1018.7R
BUOY 41004       1400   83 84  270/  6/  8 1017.7R   2/ 5   2/ 5
BUOY 41008       1400   81 85  290/ 10/ 10 1019.5R   2/ 3   2/ 90/ 9
5E ST. MARYS GA  1400      82                N/A     1/13
FRYING PAN BUOY  NOT AVBL
BUOY 41025       1400   80     200/  6/  8 1017.9R   3/ 9   3/ 50/ 9
CAPE LOOKOUT NC  1300   82     190/  5/  6 1017.6R
BUOY 41002       1312   81 81  250/ 14/ 16 1019.6R   3/ 5   2/ 70/ 9
BUOY 41010       1400   83 85  270/  8/ 10 1020.5R   2/ 3   2/130/ 8
BUOY 41012       NOT AVBL
ST AUGUSTINE FL  1400   82      10/  4/  5 1021.2R
CAPERS NEARSHORE 1300   82     270/  6/  8   N/A
FRIPP NEARSHORE  NOT AVBL


$$



USA.gov is the U.S. government's official web portal to all federal, state and local government web resources and services.